Time,TemperatureF,DewpointF,PressureIn,WindDirection,WindDirectionDegrees,WindSpeedMPH,WindSpeedGustMPH,Humidity,HourlyPrecipIn,Conditions,Clouds,dailyrainin,SoftwareType,DateUTC
2014-01-03 00:03:00,3.3,0.0,30.13,NNE,20,0.0,8.0,87,0.00,,,0.00,weatherlink.com 1.10,2014-01-03 05:03:00,
2014-01-03 00:18:00,3.3,0.0,30.14,NNE,32,2.0,6.0,87,0.00,,,0.00,weatherlink.com 1.10,2014-01-03 05:18:00,
2014-01-03 00:33:00,3.3,0.0,30.14,NE,36,1.0,4.0,87,0.00,,,0.00,weatherlink.com 1.10,2014-01-03 05:33:00,
2014-01-03 00:48:00,3.3,1.0,30.14,NNE,32,0.0,5.0,88,0.00,,,0.00,weatherlink.com 1.10,2014-01-03 05:48:00,
2014-01-03 01:19:00,3.3,1.0,30.14,NNW,346,1.0,9.0,88,0.00,,,0.00,weatherlink.com 1.10,2014-01-03 06:19:00,
2014-01-03 01:34:00,3.2,1.0,30.15,NNE,21,1.0,5.0,88,0.00,,,0.00,weatherlink.com 1.10,2014-01-03 06:34:00,
2014-01-03 01:49:00,3.0,0.0,30.16,NNW,342,0.0,5.0,88,0.00,,,0.00,weatherlink.com 1.10,2014-01-03 06:49:00,
2014-01-03 02:04:00,2.9,0.0,30.16,NNE,23,0.0,4.0,87,0.00,,,0.00,weatherlink.com 1.10,2014-01-03 07:04:00,
2014-01-03 02:19:00,2.7,0.0,30.17,NNE,33,1.0,9.0,87,0.00,,,0.00,weatherlink.com 1.10,2014-01-03 07:19:00,
2014-01-03 02:34:00,2.6,0.0,30.18,NNW,341,0.0,5.0,87,0.00,,,0.00,weatherlink.com 1.10,2014-01-03 07:34:00,
2014-01-03 02:49:00,2.5,-1.0,30.19,WNW,296,0.0,5.0,87,0.00,,,0.00,weatherlink.com 1.10,2014-01-03 07:49:00,
2014-01-03 03:04:00,2.5,-1.0,30.20,North,351,0.0,3.0,87,0.00,,,0.00,weatherlink.com 1.10,2014-01-03 08:04:00,
2014-01-03 03:19:00,2.4,0.0,30.21,North,1,3.0,7.0,88,0.00,,,0.00,weatherlink.com 1.10,2014-01-03 08:19:00,
2014-01-03 03:34:00,2.5,0.0,30.21,NNE,22,0.0,4.0,88,0.00,,,0.00,weatherlink.com 1.10,2014-01-03 08:34:00,
2014-01-03 03:49:00,2.4,-1.0,30.22,NNW,328,0.0,5.0,87,0.00,,,0.00,weatherlink.com 1.10,2014-01-03 08:49:00,
2014-01-03 04:04:00,2.3,0.0,30.22,North,354,0.0,6.0,88,0.00,,,0.00,weatherlink.com 1.10,2014-01-03 09:04:00,
2014-01-03 04:19:00,2.2,-1.0,30.22,NW,325,2.0,5.0,88,0.00,,,0.00,weatherlink.com 1.10,2014-01-03 09:19:00,
2014-01-03 04:35:00,1.8,-1.0,30.22,WNW,300,0.0,4.0,87,0.00,,,0.00,weatherlink.com 1.10,2014-01-03 09:35:00,
2014-01-03 04:50:00,1.6,-1.0,30.24,NNE,13,3.0,7.0,87,0.00,,,0.00,weatherlink.com 1.10,2014-01-03 09:50:00,
2014-01-03 05:05:00,1.4,-2.0,30.25,NNW,337,1.0,6.0,87,0.00,,,0.00,weatherlink.com 1.10,2014-01-03 10:05:00,
2014-01-03 05:20:00,1.1,-2.0,30.26,WNW,297,0.0,2.0,87,0.00,,,0.00,weatherlink.com 1.10,2014-01-03 10:20:00,
2014-01-03 05:35:00,0.9,-2.0,30.27,WNW,303,0.0,4.0,87,0.00,,,0.00,weatherlink.com 1.10,2014-01-03 10:35:00,
2014-01-03 05:50:00,0.5,-3.0,30.28,North,354,2.0,5.0,87,0.00,,,0.00,weatherlink.com 1.10,2014-01-03 10:50:00,
2014-01-03 06:05:00,0.1,-3.0,30.28,North,349,1.0,2.0,87,0.00,,,0.00,weatherlink.com 1.10,2014-01-03 11:05:00,
2014-01-03 06:20:00,0.3,-2.0,30.30,NW,311,0.0,6.0,88,0.00,,,0.00,weatherlink.com 1.10,2014-01-03 11:20:00,
2014-01-03 06:35:00,0.4,-3.0,30.31,NW,311,1.0,10.0,87,0.00,,,0.00,weatherlink.com 1.10,2014-01-03 11:35:00,
2014-01-03 06:50:00,0.4,-3.0,30.32,NW,321,0.0,7.0,87,0.00,,,0.00,weatherlink.com 1.10,2014-01-03 11:50:00,
2014-01-03 07:05:00,0.3,-3.0,30.32,NW,315,1.0,5.0,87,0.00,,,0.00,weatherlink.com 1.10,2014-01-03 12:05:00,
2014-01-03 07:20:00,0.0,-3.0,30.33,NW,317,0.0,4.0,87,0.00,,,0.00,weatherlink.com 1.10,2014-01-03 12:20:00,
2014-01-03 07:35:00,0.0,-3.0,30.33,NW,316,0.0,3.0,87,0.00,,,0.00,weatherlink.com 1.10,2014-01-03 12:35:00,
2014-01-03 07:50:00,0.0,-3.0,30.35,NNW,338,1.0,6.0,87,0.00,,,0.00,weatherlink.com 1.10,2014-01-03 12:50:00,
2014-01-03 08:06:00,0.2,-3.0,30.36,WNW,301,3.0,7.0,87,0.00,,,0.00,weatherlink.com 1.10,2014-01-03 13:06:00,
2014-01-03 08:21:00,0.1,-3.0,30.37,WNW,290,4.0,7.0,87,0.00,,,0.00,weatherlink.com 1.10,2014-01-03 13:21:00,
2014-01-03 08:36:00,0.2,-3.0,30.38,WNW,302,1.0,5.0,87,0.00,,,0.00,weatherlink.com 1.10,2014-01-03 13:36:00,
2014-01-03 08:51:00,0.2,-3.0,30.38,NNW,330,1.0,5.0,86,0.00,,,0.00,weatherlink.com 1.10,2014-01-03 13:51:00,
2014-01-03 09:06:00,0.2,-3.0,30.39,NW,322,2.0,4.0,86,0.00,,,0.00,weatherlink.com 1.10,2014-01-03 14:06:00,
2014-01-03 09:21:00,1.1,-2.0,30.39,NW,324,1.0,4.0,87,0.00,,,0.00,weatherlink.com 1.10,2014-01-03 14:21:00,
2014-01-03 09:36:00,1.9,-2.0,30.40,NNW,332,2.0,10.0,85,0.00,,,0.00,weatherlink.com 1.10,2014-01-03 14:36:00,
2014-01-03 09:51:00,2.4,-1.0,30.41,North,353,1.0,6.0,86,0.00,,,0.00,weatherlink.com 1.10,2014-01-03 14:51:00,
2014-01-03 10:06:00,2.9,-1.0,30.41,NNE,19,0.0,6.0,84,0.00,,,0.00,weatherlink.com 1.10,2014-01-03 15:06:00,
2014-01-03 10:21:00,2.9,-1.0,30.41,WNW,296,3.0,8.0,84,0.00,,,0.00,weatherlink.com 1.10,2014-01-03 15:21:00,
2014-01-03 10:36:00,3.3,-1.0,30.43,WNW,297,0.0,6.0,84,0.00,,,0.00,weatherlink.com 1.10,2014-01-03 15:36:00,
2014-01-03 10:51:00,3.3,-1.0,30.42,West,265,2.0,3.0,83,0.00,,,0.00,weatherlink.com 1.10,2014-01-03 15:51:00,
2014-01-03 11:06:00,3.5,0.0,30.42,WNW,291,0.0,5.0,84,0.00,,,0.00,weatherlink.com 1.10,2014-01-03 16:06:00,
2014-01-03 11:22:00,4.0,0.0,30.42,WNW,295,2.0,5.0,84,0.00,,,0.00,weatherlink.com 1.10,2014-01-03 16:22:00,
2014-01-03 11:52:00,4.7,0.0,30.42,West,281,2.0,6.0,82,0.00,,,0.00,weatherlink.com 1.10,2014-01-03 16:52:00,
2014-01-03 12:07:00,5.2,1.0,30.43,WSW,258,7.0,7.0,82,0.00,,,0.00,weatherlink.com 1.10,2014-01-03 17:07:00,
2014-01-03 12:22:00,6.5,2.0,30.43,NNW,333,2.0,8.0,82,0.00,,,0.00,weatherlink.com 1.10,2014-01-03 17:22:00,
2014-01-03 12:37:00,6.1,1.0,30.42,WNW,296,1.0,6.0,80,0.00,,,0.00,weatherlink.com 1.10,2014-01-03 17:37:00,
2014-01-03 12:52:00,5.9,0.0,30.42,SW,220,4.0,7.0,76,0.00,,,0.00,weatherlink.com 1.10,2014-01-03 17:52:00,
2014-01-03 13:07:00,5.8,1.0,30.43,WSW,250,2.0,3.0,80,0.00,,,0.00,weatherlink.com 1.10,2014-01-03 18:07:00,
2014-01-03 13:22:00,5.7,1.0,30.43,SW,233,0.0,4.0,80,0.00,,,0.00,weatherlink.com 1.10,2014-01-03 18:22:00,
2014-01-03 13:37:00,5.1,0.0,30.43,South,191,2.0,6.0,79,0.00,,,0.00,weatherlink.com 1.10,2014-01-03 18:37:00,
2014-01-03 13:52:00,5.8,0.0,30.43,SSE,160,2.0,6.0,78,0.00,,,0.00,weatherlink.com 1.10,2014-01-03 18:52:00,
2014-01-03 14:07:00,6.6,1.0,30.44,WNW,298,1.0,8.0,76,0.00,,,0.00,weatherlink.com 1.10,2014-01-03 19:07:00,
2014-01-03 14:22:00,6.7,0.0,30.44,WSW,246,1.0,7.0,75,0.00,,,0.00,weatherlink.com 1.10,2014-01-03 19:22:00,
2014-01-03 14:38:00,5.6,0.0,30.44,WNW,293,4.0,6.0,76,0.00,,,0.00,weatherlink.com 1.10,2014-01-03 19:38:00,
2014-01-03 14:53:00,6.2,0.0,30.44,WSW,240,3.0,8.0,74,0.00,,,0.00,weatherlink.com 1.10,2014-01-03 19:53:00,
2014-01-03 15:08:00,6.9,0.0,30.44,WSW,238,3.0,7.0,73,0.00,,,0.00,weatherlink.com 1.10,2014-01-03 20:08:00,
2014-01-03 15:23:00,6.5,-1.0,30.45,West,262,3.0,7.0,71,0.00,,,0.00,weatherlink.com 1.10,2014-01-03 20:23:00,
2014-01-03 15:38:00,6.5,0.0,30.45,SW,218,1.0,5.0,74,0.00,,,0.00,weatherlink.com 1.10,2014-01-03 20:38:00,
2014-01-03 15:53:00,5.6,-2.0,30.46,NW,314,4.0,7.0,70,0.00,,,0.00,weatherlink.com 1.10,2014-01-03 20:53:00,
2014-01-03 16:08:00,5.2,-3.0,30.46,WSW,251,0.0,6.0,70,0.00,,,0.00,weatherlink.com 1.10,2014-01-03 21:08:00,
2014-01-03 16:23:00,4.9,-3.0,30.46,WNW,290,0.0,5.0,71,0.00,,,0.00,weatherlink.com 1.10,2014-01-03 21:23:00,
2014-01-03 16:38:00,4.7,-3.0,30.46,WSW,247,0.0,4.0,71,0.00,,,0.00,weatherlink.com 1.10,2014-01-03 21:38:00,
2014-01-03 16:53:00,4.5,-3.0,30.46,SSW,198,0.0,3.0,72,0.00,,,0.00,weatherlink.com 1.10,2014-01-03 21:53:00,
2014-01-03 17:08:00,3.5,-3.0,30.47,WSW,248,0.0,1.0,76,0.00,,,0.00,weatherlink.com 1.10,2014-01-03 22:08:00,
2014-01-03 17:23:00,2.5,-3.0,30.46,WSW,243,0.0,0.0,78,0.00,,,0.00,weatherlink.com 1.10,2014-01-03 22:23:00,
2014-01-03 17:38:00,0.6,-4.0,30.46,WSW,243,0.0,0.0,81,0.00,,,0.00,weatherlink.com 1.10,2014-01-03 22:38:00,
2014-01-03 17:54:00,-1.3,-6.0,30.46,WSW,243,0.0,0.0,81,0.00,,,0.00,weatherlink.com 1.10,2014-01-03 22:54:00,
2014-01-03 18:09:00,-2.4,-6.0,30.46,WSW,243,0.0,0.0,86,0.00,,,0.00,weatherlink.com 1.10,2014-01-03 23:09:00,
2014-01-03 18:24:00,-2.6,-6.0,30.45,WSW,243,0.0,0.0,87,0.00,,,0.00,weatherlink.com 1.10,2014-01-03 23:24:00,
2014-01-03 18:39:00,-3.8,-7.0,30.45,WSW,243,0.0,0.0,87,0.00,,,0.00,weatherlink.com 1.10,2014-01-03 23:39:00,
2014-01-03 18:54:00,-4.4,-7.0,30.45,WSW,243,0.0,0.0,87,0.00,,,0.00,weatherlink.com 1.10,2014-01-03 23:54:00,
2014-01-03 19:09:00,-4.7,-8.0,30.45,WSW,243,0.0,0.0,87,0.00,,,0.00,weatherlink.com 1.10,2014-01-04 00:09:00,
2014-01-03 19:24:00,-5.6,-9.0,30.45,WSW,243,0.0,0.0,86,0.00,,,0.00,weatherlink.com 1.10,2014-01-04 00:24:00,
2014-01-03 19:39:00,-3.1,-5.0,30.45,WSW,243,0.0,0.0,90,0.00,,,0.00,weatherlink.com 1.10,2014-01-04 00:39:00,
2014-01-03 19:54:00,-3.2,-6.0,30.45,WSW,243,0.0,0.0,88,0.00,,,0.00,weatherlink.com 1.10,2014-01-04 00:54:00,
2014-01-03 20:09:00,-3.5,-6.0,30.44,WSW,243,0.0,0.0,88,0.00,,,0.00,weatherlink.com 1.10,2014-01-04 01:09:00,
2014-01-03 20:24:00,-2.8,-5.0,30.44,SE,139,0.0,1.0,89,0.00,,,0.00,weatherlink.com 1.10,2014-01-04 01:24:00,
2014-01-03 20:39:00,1.0,-1.0,30.43,SSE,158,1.0,3.0,91,0.00,,,0.00,weatherlink.com 1.10,2014-01-04 01:39:00,
2014-01-03 20:54:00,2.8,0.0,30.43,SE,138,3.0,3.0,87,0.00,,,0.00,weatherlink.com 1.10,2014-01-04 01:54:00,
2014-01-03 21:10:00,3.8,1.0,30.42,South,169,0.0,3.0,86,0.00,,,0.00,weatherlink.com 1.10,2014-01-04 02:10:00,
2014-01-03 21:25:00,4.5,1.0,30.41,South,188,2.0,4.0,85,0.00,,,0.00,weatherlink.com 1.10,2014-01-04 02:25:00,
2014-01-03 21:40:00,4.8,1.0,30.40,ESE,109,1.0,6.0,82,0.00,,,0.00,weatherlink.com 1.10,2014-01-04 02:40:00,
2014-01-03 21:55:00,4.7,0.0,30.39,SSW,208,1.0,4.0,80,0.00,,,0.00,weatherlink.com 1.10,2014-01-04 02:55:00,
2014-01-03 22:10:00,4.6,0.0,30.39,SSE,155,2.0,5.0,80,0.00,,,0.00,weatherlink.com 1.10,2014-01-04 03:10:00,
2014-01-03 22:25:00,5.0,0.0,30.39,SSW,207,1.0,6.0,79,0.00,,,0.00,weatherlink.com 1.10,2014-01-04 03:25:00,
2014-01-03 22:40:00,5.9,0.0,30.38,ESE,114,0.0,6.0,78,0.00,,,0.00,weatherlink.com 1.10,2014-01-04 03:40:00,
2014-01-03 22:55:00,6.6,1.0,30.37,SW,228,3.0,8.0,76,0.00,,,0.00,weatherlink.com 1.10,2014-01-04 03:55:00,
2014-01-03 23:10:00,7.3,1.0,30.37,ESE,108,1.0,6.0,74,0.00,,,0.00,weatherlink.com 1.10,2014-01-04 04:10:00,
2014-01-03 23:25:00,7.8,1.0,30.35,SSW,200,1.0,8.0,73,0.00,,,0.00,weatherlink.com 1.10,2014-01-04 04:25:00,
2014-01-03 23:40:00,7.6,0.0,30.34,SE,131,2.0,9.0,72,0.00,,,0.00,weatherlink.com 1.10,2014-01-04 04:40:00,
2014-01-03 23:55:00,7.7,0.0,30.33,SSE,158,2.0,7.0,72,0.00,,,0.00,weatherlink.com 1.10,2014-01-04 04:55:00,